Peru, IL

9:47 PM CDT on May 25, 2018 (GMT -0500)
Illinois Valley Regional-Duncan

Weather History for KVYS - May, 2012

Change the Weather History Date:

Thursday, May 24, 2012

  Actual Average Record
Temperature  
Mean Temperature 76 °F -  
Max Temperature 90 °F 73 °F 91 °F (1972)
Min Temperature 62 °F 50 °F 36 °F (1992)
Cooling Degree Days 11    
Growing Degree Days 26 (Base 50)    
Moisture  
Dew Point 53 °F    
Average Humidity 42    
Maximum Humidity 63    
Minimum Humidity 31    
Precipitation  
Precipitation 0.00 in - - ()
Sea Level Pressure  
Sea Level Pressure 29.66 in    
Wind  
Wind Speed 18 mph (South)    
Max Wind Speed 34 mph    
Max Gust Speed 46 mph    
Visibility 10 miles    
Events Rain    
Averages and records for this station are not official NWS values.
T = Trace of Precipitation, MM = Missing Value Source: NWS Daily Summary

Daily Weather History Graph

Daily Weather History Graph

Search for Another Location

Airport or City:

Astronomy

May. 24, 2012 Rise Set
Actual Time 5:29 AM CDT 8:17 PM CDT
Civil Twilight 4:57 AM CDT 8:50 PM CDT
Nautical Twilight 4:16 AM CDT 9:31 PM CDT
Astronomical Twilight 3:29 AM CDT 10:18 PM CDT
Moon 8:29 AM CDT (5/24) 11:17 PM CDT (5/24)
Length of Visible Light 15h 52m
Length of Day
14h 47m
Waxing Crescent, 12% of the Moon is Illuminated
May 24
Waxing Crescent
May 28
First Quarter
Jun 4
Full
Jun 11
Last Quarter
Jun 19
New

Hourly Weather History & Observations

Time (CDT) Temp. Heat Index Dew Point Humidity Pressure Visibility Wind Dir Wind Speed Gust Speed Precip Events Conditions
12:15 AM 69.1 °F - 43.0 °F 39% 29.74 in 10.0 mi SSE 11.5 mph - N/A   Clear
12:35 AM 68.0 °F - 43.3 °F 41% 29.74 in 10.0 mi SSE 11.5 mph - N/A   Clear
12:55 AM 67.3 °F - 43.7 °F 42% 29.74 in 10.0 mi SSE 10.4 mph - N/A   Clear
1:15 AM 67.3 °F - 44.1 °F 43% 29.73 in 10.0 mi SSE 11.5 mph - N/A   Clear
1:35 AM 67.5 °F - 45.0 °F 44% 29.73 in 10.0 mi SSE 10.4 mph - N/A   Clear
1:55 AM 66.0 °F - 45.1 °F 47% 29.72 in 10.0 mi SSE 10.4 mph - N/A   Clear
2:35 AM 66.4 °F - 46.4 °F 49% 29.71 in 10.0 mi SSE 12.7 mph 18.4 mph N/A   Clear
2:55 AM 67.1 °F - 47.3 °F 49% 29.70 in 10.0 mi SSE 13.8 mph - N/A   Clear
3:15 AM 67.1 °F - 47.5 °F 49% 29.70 in 10.0 mi South 16.1 mph - N/A   Clear
3:35 AM 66.0 °F - 47.5 °F 51% 29.71 in 10.0 mi South 15.0 mph - N/A   Clear
3:55 AM 65.3 °F - 47.8 °F 53% 29.71 in 10.0 mi SSE 12.7 mph - N/A   Clear
4:15 AM 64.8 °F - 48.2 °F 55% 29.71 in 10.0 mi SSE 15.0 mph 19.6 mph N/A   Clear
4:35 AM 64.8 °F - 48.6 °F 56% 29.72 in 10.0 mi SSE 12.7 mph - N/A   Clear
4:55 AM 64.0 °F - 48.6 °F 57% 29.73 in 10.0 mi SSE 10.4 mph - N/A   Clear
5:15 AM 63.3 °F - 48.9 °F 59% 29.74 in 10.0 mi SSE 8.1 mph - N/A   Clear
5:35 AM 62.6 °F - 49.1 °F 61% 29.74 in 10.0 mi SSE 9.2 mph - N/A   Clear
5:55 AM 62.6 °F - 49.5 °F 62% 29.74 in 10.0 mi SSE 9.2 mph - N/A   Clear
6:15 AM 63.0 °F - 50.0 °F 63% 29.74 in 10.0 mi SSE 12.7 mph - N/A   Clear
6:35 AM 63.7 °F - 50.5 °F 62% 29.74 in 7.0 mi SSE 15.0 mph - N/A   Clear
6:55 AM 64.9 °F - 51.1 °F 61% 29.73 in 10.0 mi SSE 15.0 mph - N/A   Clear
7:15 AM 66.6 °F - 50.9 °F 57% 29.73 in 10.0 mi SSE 16.1 mph 20.7 mph N/A   Clear
7:35 AM 68.2 °F - 51.3 °F 55% 29.73 in 10.0 mi South 16.1 mph 20.7 mph N/A   Clear
7:55 AM 70.0 °F - 51.4 °F 52% 29.73 in 10.0 mi South 15.0 mph 20.7 mph N/A   Clear
8:15 AM 72.0 °F - 51.8 °F 49% 29.72 in 10.0 mi SSE 20.7 mph 26.5 mph N/A   Clear
8:35 AM 73.9 °F - 51.4 °F 45% 29.72 in 10.0 mi South 18.4 mph 25.3 mph N/A   Clear
8:55 AM 75.9 °F - 50.9 °F 41% 29.72 in 10.0 mi South 15.0 mph 24.2 mph N/A   Clear
9:15 AM 77.9 °F - 50.0 °F 38% 29.72 in 10.0 mi South 25.3 mph 31.1 mph N/A   Clear
9:35 AM 77.9 °F - 50.4 °F 38% 29.71 in 10.0 mi South 19.6 mph 26.5 mph N/A   Scattered Clouds
9:55 AM 79.5 °F - 50.9 °F 37% 29.71 in 10.0 mi SSE 18.4 mph 24.2 mph N/A   Scattered Clouds
10:15 AM 80.2 °F - 51.3 °F 36% 29.71 in 10.0 mi South 25.3 mph 31.1 mph N/A   Clear
10:35 AM 81.0 °F - 51.8 °F 36% 29.70 in 10.0 mi South 24.2 mph 31.1 mph N/A   Scattered Clouds
10:55 AM 82.8 °F 81.6 °F 53.1 °F 36% 29.70 in 10.0 mi South 23.0 mph 28.8 mph N/A   Mostly Cloudy
11:15 AM 83.3 °F 82.0 °F 53.1 °F 35% 29.70 in 10.0 mi South 25.3 mph 31.1 mph N/A   Mostly Cloudy
11:35 AM 84.0 °F 82.7 °F 54.1 °F 36% 29.68 in 10.0 mi South 27.6 mph 32.2 mph N/A   Scattered Clouds
11:55 AM 84.7 °F 83.3 °F 54.1 °F 35% 29.68 in 10.0 mi South 25.3 mph 29.9 mph N/A   Clear
12:15 PM 86.0 °F 84.5 °F 55.4 °F 35% 29.68 in 10.0 mi South 21.9 mph 36.8 mph N/A   Clear
12:35 PM 86.5 °F 85.1 °F 55.6 °F 35% 29.66 in 10.0 mi South 24.2 mph 33.4 mph N/A   Clear
12:55 PM 87.8 °F 86.3 °F 55.9 °F 34% 29.65 in 10.0 mi South 32.2 mph 41.4 mph N/A   Clear
1:15 PM 88.0 °F 86.3 °F 55.8 °F 33% 29.64 in 10.0 mi South 29.9 mph 35.7 mph N/A   Clear
1:35 PM 89.1 °F 87.5 °F 56.3 °F 33% 29.63 in 10.0 mi South 27.6 mph 40.3 mph N/A   Clear
1:55 PM 89.4 °F 87.9 °F 56.8 °F 33% 29.63 in 10.0 mi South 28.8 mph 36.8 mph N/A   Clear
2:15 PM 89.8 °F 88.1 °F 56.7 °F 32% 29.61 in 10.0 mi South 32.2 mph 41.4 mph N/A   Clear
2:35 PM 89.8 °F 88.1 °F 56.3 °F 32% 29.60 in 10.0 mi South 29.9 mph 41.4 mph N/A   Clear
2:55 PM 90.1 °F 88.6 °F 56.7 °F 32% 29.60 in 10.0 mi South 31.1 mph 43.7 mph N/A   Clear
3:15 PM 90.7 °F 89.0 °F 56.3 °F 31% 29.58 in 10.0 mi South 27.6 mph 38.0 mph N/A   Clear
3:35 PM 90.5 °F 89.0 °F 57.0 °F 32% 29.58 in 10.0 mi South 33.4 mph 43.7 mph N/A   Clear
3:55 PM 90.5 °F 89.0 °F 56.7 °F 32% 29.56 in 10.0 mi South 26.5 mph 41.4 mph N/A   Clear
4:15 PM 90.5 °F 88.7 °F 56.3 °F 31% 29.56 in 10.0 mi South 28.8 mph 36.8 mph N/A   Clear
4:35 PM 90.1 °F 88.8 °F 57.2 °F 33% 29.55 in 10.0 mi South 34.5 mph 40.3 mph N/A   Clear
4:55 PM 90.0 °F 88.6 °F 57.4 °F 33% 29.55 in 10.0 mi South 31.1 mph 44.9 mph N/A   Clear
5:15 PM 89.2 °F 87.9 °F 57.6 °F 34% 29.55 in 10.0 mi South 28.8 mph 42.6 mph N/A   Clear
5:35 PM 89.2 °F 87.7 °F 56.8 °F 33% 29.54 in 10.0 mi South 32.2 mph 40.3 mph N/A   Clear
5:55 PM 88.7 °F 87.1 °F 56.3 °F 33% 29.55 in 10.0 mi South 34.5 mph 46.0 mph N/A   Clear
6:15 PM 87.8 °F 86.3 °F 56.5 °F 34% 29.56 in 10.0 mi South 32.2 mph 42.6 mph N/A   Clear
6:35 PM 86.5 °F 85.4 °F 57.2 °F 37% 29.56 in 10.0 mi South 25.3 mph 38.0 mph N/A   Clear
6:55 PM 86.0 °F 84.9 °F 57.2 °F 37% 29.57 in 10.0 mi South 28.8 mph 39.1 mph N/A   Clear
7:15 PM 85.6 °F 84.7 °F 57.2 °F 38% 29.58 in 10.0 mi South 29.9 mph 36.8 mph N/A   Clear
7:35 PM 85.5 °F 84.3 °F 56.5 °F 37% 29.58 in 10.0 mi South 20.7 mph 32.2 mph N/A   Clear
7:55 PM 85.3 °F 84.1 °F 56.3 °F 37% 29.59 in 10.0 mi South 24.2 mph 32.2 mph N/A   Clear
8:15 PM 84.4 °F 83.4 °F 56.3 °F 38% 29.59 in 10.0 mi South 17.3 mph - N/A   Clear
8:35 PM 83.7 °F 83.0 °F 56.8 °F 40% 29.60 in 10.0 mi South 15.0 mph - N/A   Clear
8:55 PM 83.3 °F 82.6 °F 56.7 °F 40% 29.63 in 10.0 mi SSW 15.0 mph - N/A   Scattered Clouds
9:15 PM 83.8 °F 82.6 °F 54.1 °F 36% 29.63 in 10.0 mi SSW 18.4 mph 24.2 mph N/A   Mostly Cloudy
9:35 PM 83.8 °F 82.4 °F 53.2 °F 35% 29.63 in 10.0 mi SSW 18.4 mph 26.5 mph N/A   Mostly Cloudy
9:55 PM 83.5 °F 82.1 °F 53.2 °F 35% 29.63 in 10.0 mi SSW 18.4 mph 25.3 mph N/A   Scattered Clouds
10:15 PM 82.8 °F 81.6 °F 53.6 °F 36% 29.64 in 10.0 mi South 19.6 mph - N/A   Clear
10:35 PM 82.2 °F 81.4 °F 54.0 °F 38% 29.66 in 10.0 mi SSW 16.1 mph 23.0 mph N/A   Scattered Clouds
10:55 PM 82.8 °F 81.9 °F 54.7 °F 38% 29.66 in 10.0 mi SSW 18.4 mph 26.5 mph N/A   Mostly Cloudy
11:15 PM 82.8 °F 82.0 °F 55.4 °F 39% 29.67 in 10.0 mi SW 21.9 mph 27.6 mph N/A   Overcast
11:35 PM 82.8 °F 82.1 °F 56.3 °F 40% 29.68 in 10.0 mi SW 17.3 mph 28.8 mph N/A   Overcast
11:55 PM 76.5 °F - 61.7 °F 60% 29.70 in 10.0 mi WSW 11.5 mph 23.0 mph N/A Rain Light Rain